{"data":{"norad_id":57920,"intl_designator":"2023-147H","name":"STARLINK-30485","alt_names":[],"object_type":"PAYLOAD","status":"ACTIVE","operator":null,"country":"US","launch_date":"2023-09-24","launch_site_code":"AFETR","launch_vehicle":null,"mission":null,"orbit_class":"UNKNOWN","rcs_meters":null,"size_class":null,"mass_kg":null,"dimensions":null,"purposes":["comms"],"wikipedia_slug":null,"has_3d_model":false,"image_url":null,"decayed_at":null,"tle_current":{"epoch":"2026-09-20T04:33:25.270848Z","epoch_age_seconds":161407,"freshness":"FRESH","line1":"1 57920U 23147H   26263.18987582 -.00000334  00000+0 -25863-5 0  9997","line2":"2 57920  43.0061 306.8352 0002448 290.0367  70.0221 15.27576477166377","mean_motion":15.27576477,"eccentricity":0.0002448,"inclination_deg":43.0061,"raan_deg":306.8352,"arg_perigee_deg":290.0367,"mean_anomaly_deg":70.0221,"bstar":-2.5863e-6,"rev_number":16637,"period_min":94.266966117992,"perigee_km":481.38002425058,"apogee_km":484.73926612806,"semimajor_km":6861.1966451893,"source":"CELESTRAK","updated_at":"2026-09-21T09:00:33.741520Z"}}}